{"data":{"norad_id":54176,"epoch":"2026-05-25T02:10:50.278944Z","epoch_age_seconds":67472,"freshness":"FRESH","line1":"1 54176U 22141V   26145.09085971 -.00002579  00000+0 -14399-3 0  9993","line2":"2 54176  53.2145  20.9940 0001574  91.6236 268.4936 15.08835983197390","mean_motion":15.08835983,"eccentricity":0.0001574,"inclination_deg":53.2145,"raan_deg":20.994,"arg_perigee_deg":91.6236,"mean_anomaly_deg":268.4936,"bstar":-0.00014399,"rev_number":19739,"period_min":95.43780876281,"perigee_km":538.66679104748,"apogee_km":540.84454365916,"semimajor_km":6917.8926673533,"source":"CELESTRAK","updated_at":"2026-05-25T13:38:17.663385Z"}}